Location: Bonn
(50.7330°N, 7.1000°E)
Time: 17:27:23
(UTC+02:00)

Iridium 67 - Visible Passes

Search period start: 16 September 2014 00:00
Search period end: 26 September 2014 00:00
Orbit: 776 x 779 km, 86.4° (Epoch: 15 September)

Date Brightness Start Highest point End Pass type
(mag) Time Alt. Az. Time Alt. Az. Time Alt. Az.
16 Sep 9.1 06:24:36 10° NE 06:25:04 10° ENE 06:25:33 10° ENE visible
16 Sep 5.7 21:03:45 10° S 21:08:57 79° W 21:14:12 10° N visible
16 Sep 8.5 22:48:06 10° W 22:50:37 13° WNW 22:53:09 10° NW visible
17 Sep 5.5 20:30:20 10° SSE 20:35:27 62° E 20:40:37 10° N visible
17 Sep 8.0 22:12:40 10° WSW 22:16:39 22° WNW 22:20:39 10° NNW visible
18 Sep 7.2 21:38:04 10° SW 21:42:49 35° WNW 21:47:35 10° N visible
19 Sep 8.8 06:22:50 10° NNE 06:25:31 14° ENE 06:28:11 10° E visible
19 Sep 6.2 21:03:59 10° SSW 21:09:06 58° W 21:14:16 10° N visible
20 Sep 5.5 20:30:19 10° S 20:35:32 85° E 20:40:46 10° N visible
20 Sep 8.4 22:13:47 10° WSW 22:17:00 16° WNW 22:20:15 10° NNW visible
21 Sep 7.8 21:38:45 10° SW 21:43:05 26° WNW 21:47:27 10° NNW visible
22 Sep 8.5 06:22:15 10° NNE 06:25:54 19° ENE 06:29:31 10° ESE visible
22 Sep 6.9 21:04:22 10° SSW 21:09:18 42° WNW 21:14:16 10° N visible
23 Sep 9.0 05:50:13 10° NE 05:51:52 11° ENE 05:53:32 10° E visible
23 Sep 5.9 20:30:27 10° S 20:35:39 71° W 20:40:52 10° N visible
23 Sep 8.7 22:15:25 10° W 22:17:24 12° WNW 22:19:25 10° NW visible
24 Sep 5.5 19:56:57 10° S 20:02:07 70° E 20:07:19 10° N visible
24 Sep 8.2 21:39:39 10° WSW 21:43:24 20° WNW 21:47:10 10° NNW visible
25 Sep 8.2 06:21:57 10° NNE 06:26:13 25° ENE 06:30:28 10° SE visible
25 Sep 7.5 21:04:55 10° SW 21:09:32 32° WNW 21:14:11 10° NNW visible
